Flag for Germany Weather past 2 weeks in Garbsen, Lower Saxony, Germany

Now
52 °F

Light rain. Fog.


Feels Like: 46 °F
Forecast: 41 / 44 °F
Wind: 18 mph from Southwest

Location: Hannover

Current Time: Dec 19, 2014 at 1:38:25 AM

Latest Report: Dec 19, 2014 at 12:50 AM


Visibility: 3 mi

Pressure: 29.74 "Hg

Humidity: 100%

Dew point: 52 °F

Location of GarbsenLocation

Historic Weather in Garbsen — Graph

°F

Garbsen temperature yesterday

Maximum temperature yesterday: 54 °F (at 2:20 PM)
Minimum temperature yesterday: 48 °F (at 12:20 AM)
Average temperature yesterday: 51 °F

Past Weeks' High & Low Weather Summary

 TemperatureHumidityPressure
High54 °F (Dec 18, 2:20 PM)100% (Dec 4, 2:20 AM)30.36 "Hg (Dec 4, 2:20 AM)
Low28 °F (Dec 4, 12:20 AM)66% (Dec 7, 4:20 PM)29.33 "Hg (Dec 12, 12:50 PM)
Average40 °F88%29.90 "Hg
* Reported Dec 4 12:20 AM — Dec 19 12:20 AM, Garbsen, Weather by CustomWeather, © 2014

Note: Actual official high and low records may vary slightly from our data, if they occured in-between our weather recording intervals... More about our weather records

Advertising

Garbsen weather history for previous 24 hours

 ConditionsComfort  
Time TempWeatherWind HumidityBarometerVisibility
12:20 AM
Dec 19
52 °FLight rain. Fog.16 mph100%29.74 "Hg2 mi
11:50 PM
Dec 18
52 °FLight rain. Fog.18 mph100%29.74 "Hg2 mi
11:20 PM54 °FLight rain. Passing clouds.17 mph94%29.74 "Hg5 mi
10:50 PM54 °FLight rain. Passing clouds.18 mph94%29.74 "Hg4 mi
10:20 PM54 °FLight rain. Passing clouds.16 mph94%29.74 "Hg4 mi
9:50 PM54 °FLight rain. Fog.15 mph94%29.74 "Hg2 mi
9:20 PM54 °FLight rain. Fog.18 mph94%29.74 "Hg2 mi
8:50 PM54 °FLight rain. Passing clouds.16 mph94%29.74 "Hg4 mi
8:20 PM54 °FLight rain. Passing clouds.16 mph94%29.74 "Hg5 mi
7:50 PM54 °FLight rain. Passing clouds.17 mph94%29.71 "Hg5 mi
7:20 PM54 °FLight rain. Passing clouds.17 mph94%29.71 "Hg3 mi
6:50 PM54 °FLight rain. Passing clouds.17 mph94%29.71 "Hg3 mi
6:20 PM54 °FPassing clouds.16 mph94%29.71 "Hg4 mi
5:50 PM54 °FPassing clouds.16 mph94%29.71 "Hg5 mi
5:20 PM54 °FPassing clouds.15 mph94%29.71 "HgN/A
4:50 PM54 °FPassing clouds.16 mph88%29.71 "HgN/A
4:20 PM54 °FPassing clouds.16 mph88%29.71 "HgN/A
3:50 PM52 °FPartly sunny.12 mph94%29.71 "HgN/A
3:20 PM52 °FDrizzle. Broken clouds.13 mph94%29.71 "Hg3 mi
2:50 PM54 °FPartly sunny.12 mph88%29.74 "HgN/A
2:20 PM54 °FPartly sunny.13 mph88%29.74 "HgN/A
1:50 PM52 °FDrizzle. Partly sunny.12 mph94%29.74 "Hg5 mi
1:20 PM52 °FDrizzle. Partly sunny.13 mph94%29.74 "HgN/A
12:50 PM52 °FPartly sunny.9 mph94%29.77 "HgN/A
12:20 PM52 °FLow clouds.12 mph94%29.77 "HgN/A
11:20 AM52 °FLow clouds.13 mph94%29.77 "HgN/A
10:50 AM52 °FOvercast.12 mph88%29.77 "HgN/A
10:20 AM52 °FOvercast.10 mph88%29.77 "HgN/A
9:50 AM52 °FOvercast.10 mph88%29.77 "HgN/A
9:20 AM52 °FPartly sunny.10 mph88%29.77 "HgN/A
8:50 AM50 °FPartly sunny.10 mph94%29.77 "HgN/A
8:20 AM50 °FPassing clouds.12 mph94%29.77 "HgN/A
7:50 AM50 °FPassing clouds.9 mph94%29.77 "Hg5 mi
7:20 AM50 °FPassing clouds.10 mph94%29.77 "Hg4 mi
6:50 AM50 °FPassing clouds.9 mph94%29.77 "Hg4 mi
6:20 AM48 °FPartly cloudy.8 mph100%29.77 "Hg4 mi
5:50 AM50 °FPartly cloudy.7 mph88%29.77 "Hg4 mi
5:20 AM50 °FPartly cloudy.7 mph88%29.77 "Hg5 mi
4:20 AM50 °FOvercast.12 mph88%29.77 "Hg6 mi
3:50 AM50 °FOvercast.10 mph88%29.77 "Hg6 mi
3:20 AM48 °FPassing clouds.9 mph94%29.74 "Hg6 mi
2:50 AM48 °FPassing clouds.10 mph94%29.77 "Hg6 mi
2:20 AM48 °FMostly cloudy.12 mph94%29.74 "Hg6 mi
1:50 AM48 °FMostly cloudy.10 mph94%29.74 "Hg6 mi
1:20 AM48 °FMostly cloudy.8 mph94%29.74 "HgN/A
Weather by CustomWeather, © 2014

See weather overviewHow to use our weather pages